[[{"header":{"parameterUnit":"m.s-1","parameterCategory":1,"la1":30.2991,"la2":30.254,"lo1":-89.0895,"lo2":-89.0444,"dy":0.0017,"dx":0.0017,"nx":28,"ny":28,"refTime":"2025-09-05T09:00:00:Z","depth":0,"parameterNumber":2,"parameterNumberName":"U-component_of_WINDS"},"data":[0,0,0,0,0,0,0,0,0,0,0,0,0,0,0,0,0,0,0,0,0,0,0,0,0,0,0,0,0,0,0,0,0,0,0,0,0,0,0,0,0,0,0,0,0,0,0,0,0,0,0,0,0,0,0,0,0,0,1.2279,1.2279,0,1.2264,1.2264,1.2264,1.2259,1.2259,1.2259,1.2259,1.2243,1.2243,1.2243,0,0,0,0,0,0,0,0,0,0,0,0,0,1.2302,1.2301,1.2279,1.2279,1.2278,1.2264,1.2264,1.2264,1.2259,1.2259,1.2259,1.2259,1.2244,1.2243,1.2242,0,0,0,0,0,0,0,0,0,0,0,0,0,1.229,1.2301,1.2279,1.2275,1.2274,1.2264,1.2264,1.2263,1.2259,1.2259,1.2259,1.226,1.2244,1.2243,1.2242,1.2235,0,0,1.224,1.224,0,0,0,0,0,0,0,0,1.229,1.2289,1.2275,1.2275,1.2274,1.2264,1.2266,1.2254,1.2259,1.2265,1.2259,1.226,1.225,1.2249,1.2246,1.2235,1.2234,1.224,1.224,1.2239,1.2239,0,0,0,0,0,0,0,1.2291,1.2289,1.2273,1.2275,1.2274,1.2273,1.2271,1.2264,1.2257,1.2264,1.2264,1.2262,1.225,1.2246,1.2245,1.2234,1.224,1.2239,1.2239,1.2239,1.2214,1.2214,0,0,0,0,0,0,1.2293,1.229,1.2273,1.2272,1.2283,1.2272,1.2271,1.2267,1.2257,1.2256,1.2262,1.2262,1.2248,1.2246,1.2245,1.2235,1.2239,1.2239,1.2238,1.2214,1.2214,1.2214,0,0,0,0,0,0,1.2293,1.2292,1.2274,1.2281,1.2279,1.2272,1.2268,1.2266,1.2263,1.2255,1.2254,1.226,1.2248,1.2246,1.2237,1.2234,1.2238,1.2238,1.2214,1.2214,1.2214,1.2215,0,0,0,0,0,0,1.2294,1.2292,1.229,1.2281,1.2278,1.2267,1.2267,1.2266,1.2262,1.2262,1.2253,1.2252,1.2248,1.2238,1.2237,1.2233,1.2237,1.2215,1.2214,1.2214,1.2215,1.2215,1.2214,0,0,0,0,0,1.2295,1.2291,1.2289,1.2287,1.2276,1.2267,1.2266,1.2261,1.2262,1.2259,1.2254,1.2252,1.2235,1.2238,1.2235,1.2232,1.2215,1.2214,1.2214,1.2215,1.2215,1.2214,0,0,0,0,0,0,1.2299,1.229,1.2288,1.2281,1.2275,1.2267,1.2263,1.2261,1.2254,1.2254,1.2249,1.2247,1.2239,1.2234,1.2238,1.2223,1.2225,1.2224,1.2226,1.2226,1.2225,1.2226,1.2236,0,0,0,0,0,1.2299,1.2293,1.2285,1.228,1.2277,1.227,1.2267,1.2264,1.2257,1.2254,1.2249,1.2242,1.2235,1.223,1.2223,1.2215,1.2212,1.2211,1.221,1.221,1.2209,1.2202,1.2201,1.2212,1.2212,1.2212,0,0,1.2299,1.2293,1.229,1.228,1.2275,1.2269,1.2268,1.2262,1.2257,1.2253,1.2245,1.224,1.2232,1.2223,1.2219,1.2219,1.2205,1.2209,1.2209,1.2208,1.2202,1.2201,1.22,1.2212,1.2212,1.2212,0,0,1.2296,1.2291,1.2285,1.228,1.2272,1.2268,1.2266,1.2258,1.2255,1.2246,1.2243,1.2236,1.2224,1.2218,1.2214,1.2206,1.2204,1.2204,1.2202,1.2195,1.2195,1.2194,1.219,1.2189,1.2203,1.2203,1.2203,0,1.2297,1.2287,1.2283,1.2276,1.2271,1.2268,1.2261,1.2256,1.2246,1.2243,1.2243,1.2227,1.2222,1.221,1.2208,1.2205,1.2202,1.2205,1.2195,1.2194,1.2193,1.219,1.2188,1.2203,1.2203,1.2203,1.2203,0,1.2288,1.2282,1.2278,1.2268,1.2263,1.2257,1.225,1.2245,1.2242,1.2237,1.2228,1.2221,1.2211,1.2209,1.2206,1.2196,1.2197,1.2196,1.2197,1.2192,1.2189,1.2187,1.2203,1.2203,1.2203,1.2203,0,0,1.2288,1.2275,1.2273,1.2268,1.2259,1.2253,1.2246,1.2237,1.2232,1.2225,1.2218,1.2207,1.2206,1.2201,1.2197,1.2192,1.2184,1.2192,1.2191,1.219,1.2172,1.2171,1.217,1.2183,1.2183,1.2182,1.2172,0,1.2283,1.227,1.2265,1.2254,1.2247,1.2242,1.2236,1.2229,1.2223,1.2216,1.221,1.2202,1.2202,1.2199,1.2193,1.2187,1.2181,1.2187,1.2175,1.2175,1.2177,1.2168,1.2168,1.2159,1.2171,1.217,1.217,0,1.2275,1.2268,1.2256,1.2246,1.2243,1.2237,1.2227,1.2221,1.2212,1.2208,1.2202,1.2198,1.2189,1.2191,1.2177,1.2182,1.2176,1.2172,1.2171,1.217,1.2172,1.2165,1.2156,1.2154,1.2168,1.2168,1.2168,0,1.2275,1.2262,1.2253,1.2249,1.2237,1.2232,1.2227,1.2219,1.2213,1.2204,1.22,1.2191,1.2185,1.2177,1.217,1.2173,1.2157,1.2159,1.2153,1.2153,1.215,1.215,1.2138,1.2147,1.2147,1.2147,1.2147,0,1.2269,1.2262,1.2252,1.2247,1.2238,1.2232,1.2223,1.2217,1.2209,1.2201,1.2197,1.219,1.2182,1.2173,1.2167,1.2156,1.2154,1.215,1.2148,1.215,1.215,1.2146,1.2146,1.2147,1.2147,1.2147,1.2147,0,1.2268,1.2261,1.225,1.224,1.2236,1.223,1.2221,1.2214,1.2208,1.2199,1.2196,1.2187,1.2176,1.2168,1.2155,1.2151,1.2139,1.2138,1.2142,1.2141,1.2135,1.2135,1.2119,1.2116,1.2129,1.2128,1.2128,0,1.2264,1.2259,1.2247,1.2241,1.2236,1.2227,1.2221,1.2214,1.2208,1.2196,1.2191,1.218,1.2171,1.2154,1.2145,1.2134,1.2132,1.2128,1.2131,1.2132,1.2131,1.2131,1.2129,1.2127,1.2127,1.2127,1.2127,0,1.2259,1.2255,1.2247,1.2237,1.223,1.2221,1.2213,1.2209,1.22,1.2192,1.2181,1.2174,1.216,1.2148,1.2136,1.213,1.2126,1.2126,1.2124,1.2125,1.2127,1.2124,1.2139,1.2126,1.2126,1.2126,1.2126,1.2126,1.2256,1.225,1.224,1.223,1.2223,1.2215,1.2208,1.22,1.2191,1.2179,1.2175,1.2163,1.2152,1.2136,1.2129,1.2119,1.2119,1.2116,1.2115,1.2115,1.2114,1.2129,1.2117,1.2117,1.2117,1.2117,1.2117,0,1.2249,1.2242,1.2233,1.2221,1.2213,1.2211,1.22,1.2194,1.2183,1.2174,1.2164,1.2151,1.2139,1.2129,1.2117,1.211,1.2108,1.2107,1.2107,1.2105,1.2115,1.2118,1.2109,1.2109,1.2109,1.2109,1.2109,1.2109,1.2245,1.2234,1.2229,1.2214,1.2207,1.2195,1.2189,1.2181,1.2173,1.2158,1.2148,1.2142,1.2132,1.2118,1.2107,1.2104,1.2099,1.2098,1.2095,1.2104,1.2105,1.2106,1.2108,1.2097,1.2097,1.2086,1.2086,1.2086]},{"header":{"parameterUnit":"m.s-1","parameterCategory":1,"la1":30.2991,"la2":30.254,"lo1":-89.0895,"lo2":-89.0444,"dy":0.0017,"dx":0.0017,"nx":28,"ny":28,"refTime":"2025-09-05T09:00:00:Z","depth":0,"parameterNumber":3,"parameterNumberName":"V-component_of_WINDS"},"data":[0,0,0,0,0,0,0,0,0,0,0,0,0,0,0,0,0,0,0,0,0,0,0,0,0,0,0,0,0,0,0,0,0,0,0,0,0,0,0,0,0,0,0,0,0,0,0,0,0,0,0,0,0,0,0,0,0,0,1.1133,1.1133,0,1.1141,1.1141,1.1141,1.1118,1.1117,1.1117,1.1116,1.1124,1.1125,1.1126,0,0,0,0,0,0,0,0,0,0,0,0,0,1.1096,1.1097,1.1133,1.1133,1.1133,1.1141,1.1141,1.1141,1.1118,1.1117,1.1117,1.1116,1.1124,1.1125,1.1126,0,0,0,0,0,0,0,0,0,0,0,0,0,1.1109,1.1097,1.1133,1.1123,1.1122,1.1141,1.1141,1.1141,1.1119,1.1117,1.1116,1.1115,1.1124,1.1125,1.1126,1.1155,0,0,1.113,1.1131,0,0,0,0,0,0,0,0,1.1108,1.111,1.1124,1.1123,1.1122,1.1127,1.1131,1.1146,1.1119,1.112,1.1116,1.1115,1.1126,1.1127,1.1131,1.1156,1.1156,1.113,1.1131,1.1132,1.1132,0,0,0,0,0,0,0,1.1107,1.111,1.1136,1.1124,1.1123,1.1117,1.1118,1.1134,1.1129,1.112,1.1118,1.1119,1.1125,1.113,1.1131,1.1156,1.113,1.1131,1.1132,1.1133,1.1203,1.1204,0,0,0,0,0,0,1.1108,1.1109,1.1136,1.1136,1.1113,1.1119,1.1119,1.1127,1.1129,1.1128,1.112,1.1118,1.1128,1.113,1.1131,1.1164,1.1132,1.1133,1.1134,1.1202,1.1203,1.1205,0,0,0,0,0,0,1.1107,1.1111,1.1135,1.1122,1.1125,1.112,1.1129,1.1128,1.1132,1.1129,1.1128,1.1125,1.1127,1.1129,1.1149,1.1164,1.1133,1.1135,1.1201,1.1202,1.1204,1.1231,0,0,0,0,0,0,1.1106,1.111,1.1122,1.1123,1.1126,1.1154,1.113,1.1129,1.1134,1.1132,1.1134,1.1133,1.1127,1.1147,1.115,1.1165,1.1136,1.1199,1.1201,1.1203,1.1229,1.1233,1.1237,0,0,0,0,0,1.1105,1.113,1.1123,1.1126,1.114,1.1155,1.1156,1.1148,1.1136,1.1147,1.1144,1.1133,1.1162,1.1149,1.1153,1.1168,1.1198,1.1201,1.1203,1.1227,1.1232,1.1237,0,0,0,0,0,0,1.1131,1.113,1.1122,1.1148,1.1151,1.1151,1.1165,1.1155,1.1163,1.116,1.115,1.115,1.1172,1.1172,1.1158,1.1196,1.1178,1.1181,1.1195,1.12,1.1204,1.1203,1.1137,0,0,0,0,0,1.114,1.1152,1.115,1.1173,1.1175,1.1169,1.1175,1.1169,1.1172,1.1174,1.1173,1.1177,1.1187,1.1193,1.1202,1.1229,1.1228,1.1241,1.1245,1.1249,1.1251,1.1263,1.1269,1.1213,1.1213,1.1212,0,0,1.1158,1.1159,1.1167,1.1178,1.118,1.1192,1.1171,1.1185,1.1194,1.1176,1.1194,1.1194,1.1197,1.122,1.123,1.1221,1.1267,1.1252,1.1255,1.1255,1.1267,1.1272,1.1277,1.1214,1.1214,1.1214,0,0,1.1197,1.1199,1.1218,1.122,1.1223,1.1219,1.1224,1.1224,1.1223,1.1241,1.1227,1.1237,1.1255,1.1257,1.1261,1.1299,1.1288,1.1302,1.1324,1.1336,1.1341,1.1344,1.1357,1.1361,1.1305,1.1305,1.1305,0,1.1219,1.1237,1.1228,1.1243,1.1247,1.1231,1.1249,1.1252,1.1258,1.1261,1.1251,1.1271,1.1273,1.1295,1.1304,1.1308,1.1312,1.1302,1.1341,1.1344,1.1348,1.1359,1.1364,1.1307,1.1306,1.1306,1.1306,0,1.1263,1.1276,1.129,1.1296,1.1302,1.1318,1.1311,1.1318,1.1311,1.1308,1.1325,1.1326,1.1334,1.1339,1.1332,1.136,1.1354,1.1343,1.1324,1.1355,1.1366,1.137,1.1309,1.1308,1.1308,1.1307,0,0,1.132,1.1319,1.1324,1.1326,1.1328,1.1337,1.1352,1.1359,1.1365,1.1369,1.1381,1.1395,1.1384,1.1388,1.1381,1.1392,1.142,1.1379,1.1379,1.1386,1.1449,1.1456,1.1462,1.1413,1.1414,1.1415,1.1448,0,1.1357,1.1382,1.1374,1.1399,1.141,1.1394,1.1407,1.1409,1.1406,1.1414,1.1411,1.1421,1.1406,1.1408,1.1418,1.1415,1.1433,1.1412,1.1423,1.1423,1.1422,1.1468,1.1476,1.1507,1.1452,1.1453,1.1453,0,1.1404,1.141,1.1436,1.1434,1.1438,1.145,1.1455,1.1463,1.1465,1.1462,1.1465,1.1456,1.1469,1.1452,1.1469,1.1456,1.146,1.1459,1.146,1.146,1.144,1.1468,1.1517,1.1522,1.146,1.146,1.1459,0,1.1441,1.1455,1.1472,1.1474,1.1473,1.1481,1.1481,1.1481,1.1485,1.149,1.1492,1.1499,1.1502,1.1507,1.1499,1.1487,1.1517,1.1499,1.1514,1.1515,1.1521,1.1521,1.1571,1.1525,1.1525,1.1525,1.1525,0,1.1483,1.1499,1.1488,1.1498,1.1516,1.1505,1.1523,1.1521,1.1521,1.153,1.1518,1.1526,1.1516,1.1524,1.1518,1.1532,1.1534,1.1531,1.1529,1.1532,1.1532,1.1534,1.1531,1.1526,1.1526,1.1526,1.1526,0,1.1527,1.152,1.1537,1.1534,1.1534,1.1546,1.1543,1.1552,1.1548,1.156,1.1562,1.1555,1.1563,1.1556,1.1564,1.156,1.1579,1.1575,1.1579,1.1577,1.1592,1.159,1.1644,1.165,1.1602,1.1602,1.1603,0,1.1554,1.1566,1.1563,1.1568,1.1569,1.1577,1.1581,1.1571,1.1576,1.1578,1.1586,1.1593,1.1598,1.1612,1.1607,1.1613,1.1608,1.1626,1.1608,1.161,1.1606,1.1605,1.1606,1.163,1.163,1.1631,1.1631,0,1.1601,1.1597,1.1603,1.1608,1.1613,1.1617,1.1619,1.1624,1.1613,1.1619,1.1627,1.1631,1.1638,1.1645,1.1649,1.1648,1.1638,1.1637,1.164,1.1642,1.1644,1.1642,1.1587,1.1635,1.1635,1.1635,1.1634,1.1634,1.1637,1.1646,1.1645,1.1652,1.1653,1.1655,1.1662,1.1659,1.1665,1.167,1.1664,1.1673,1.1673,1.1677,1.1677,1.1684,1.1676,1.1682,1.1683,1.1684,1.1685,1.1643,1.1685,1.1685,1.1684,1.1684,1.1684,0,1.1683,1.1681,1.1687,1.1691,1.1696,1.1685,1.1687,1.1692,1.17,1.17,1.1705,1.1713,1.1719,1.1715,1.172,1.1726,1.1721,1.1727,1.1726,1.1726,1.1693,1.1689,1.1731,1.1731,1.1731,1.1731,1.1731,1.1731,1.1707,1.1721,1.1717,1.1731,1.1729,1.1737,1.1739,1.174,1.1741,1.175,1.1755,1.1752,1.175,1.1754,1.1759,1.1757,1.1759,1.1767,1.1764,1.1733,1.1728,1.1724,1.172,1.1768,1.1768,1.1796,1.1796,1.1796]}]]